User: anonymous   Login
Location: Unspecified
(0.0000°N, 0.0000°E)
Time: 00:57:56
(UTC+00:00)
Language:

TBA - TO BE ASSIGNED - Orbit

View from above orbital plane
View from above orbital plane
View from above satellite
View from above satellite

Ground track
Ground track

The orbit is defined by the following mean orbital elements,

1 67951U          26145.62905251 +.00000000 +00000-0 +45970-3 0 00007
2 67951  43.0003 116.5445 0000839 272.2466  87.8290 15.27597306    04
Epoch (UTC): 25 May 2026 15:05:50
Eccentricity: 0.0000839
inclination: 43.0003°
perigee height: 482 km
apogee height: 484 km
right ascension of ascending node: 116.5445°
argument of perigee: 272.2466°
revolutions per day: 15.27597306
mean anomaly at epoch: 87.8290°

The dashed part of the orbit path shows where the satellite is in the earth's shadow,  

DLR